Wind_Speed
5 7 9 14 16 10 32 30 26 27 24 22 21 18 16 13 11 9 9 11 13 15 15 17 19 20 19 14 10 10 3 7 6 4 2 10 10 11 13 11 10 12 14 11 11
6 5 9 15 18 21 17 33 30 27 27 25 23 21 19 16 13 11 9 9 10 13 16 14 16 19 19 15 11 10 4 2 7 11 8 11 9 7 11 8 9 11 12 9 7
6 4 4 12 9 12 17 19 36 31 29 27 25 23 21 19 16 13 12 10 8 12 15 14 16 18 14 14 15 9 5 2 5 8 7 9 11 9 6 7 8 7 9 7 6
5 5 3 3 6 11 10 12 36 35 32 29 27 25 23 22 19 18 15 13 11 9 10 14 16 17 16 16 17 16 14 11 3 1 5 9 13 6 4 7 6 4 5 5 8
8 6 5 2 2 7 11 11 13 31 35 32 29 27 25 24 20 20 19 16 14 12 11 10 17 20 19 20 20 20 18 13 11 10 13 11 4 3 3 1 2 3 3 5 4
3 8 7 6 5 2 4 9 14 13 35 36 33 31 28 26 21 19 19 18 18 16 15 15 11 15 21 22 21 18 16 18 17 14 16 15 12 7 5 3 6 4 5 6 5
10 5 5 7 7 6 3 6 10 12 9 41 36 33 31 28 24 22 19 18 20 19 18 16 15 15 12 14 18 23 21 23 23 19 19 18 15 8 8 8 6 3 4 6 5
8 10 8 3 6 7 8 5 2 6 7 28 39 36 33 29 29 27 22 20 19 21 22 22 20 19 18 16 15 14 17 16 19 16 22 21 17 13 8 7 6 2 5 7 5
2 5 8 9 7 2 6 6 3 1 7 14 37 39 36 33 33 27 26 24 22 22 21 23 24 23 22 20 18 16 13 14 16 18 23 24 20 17 11 11 8 9 2 6 6
2 4 3 5 6 7 3 4 4 2 4 6 34 40 37 31 27 26 25 24 24 23 23 22 25 25 24 24 19 18 17 19 16 19 23 27 22 22 17 14 13 13 6 4 9
7 9 10 7 3 9 8 6 5 4 3 4 19 37 34 32 28 23 21 23 25 25 26 27 23 20 27 30 29 29 25 21 16 21 25 27 24 25 21 18 15 13 8 3 10
8 9 9 8 11 9 8 7 10 7 4 5 7 29 29 28 26 27 28 26 31 35 34 32 25 27 32 30 31 32 29 23 22 24 26 29 27 28 26 20 15 11 9 9 6
7 8 9 9 10 10 9 9 6 9 7 5 4 12 22 25 26 27 26 26 26 24 35 34 25 32 33 34 35 33 32 26 25 29 29 30 31 30 30 26 20 13 13 16 16
9 9 9 10 9 8 6 6 5 4 3 0 4 7 12 17 22 23 25 26 25 23 30 33 28 33 36 34 33 35 29 30 30 34 33 35 38 35 34 27 20 19 20 20 20
8 8 9 10 9 9 7 7 8 9 7 8 3 5 6 12 13 17 22 25 26 29 32 29 27 32 36 32 37 31 34 33 38 40 40 40 41 35 35 31 21 26 24 27 25
9 9 10 11 11 11 11 11 12 12 13 11 2 7 11 12 15 16 18 23 28 30 32 30 30 32 30 32 36 35 36 37 39 44 49 40 44 43 39 31 27 28 27 31 29
11 10 11 12 13 13 15 15 15 16 16 15 13 13 15 18 21 20 20 19 25 29 33 34 32 35 37 36 33 34 36 38 39 42 47 43 49 45 40 36 32 35 32 30 32
13 13 15 16 17 17 17 18 19 19 20 20 20 20 20 23 24 24 24 24 25 26 29 31 32 36 38 39 34 36 37 41 44 42 42 49 52 49 42 40 37 40 34 35 36
18 17 19 19 19 18 18 20 20 21 22 23 26 28 31 30 30 29 30 31 33 33 35 34 32 35 43 45 42 40 42 43 44 46 48 48 55 53 44 44 43 44 42 42 41
21 21 22 22 22 22 23 23 22 23 23 25 26 28 31 34 38 38 35 38 42 41 40 41 42 30 36 46 49 49 44 47 47 48 51 53 50 54 51 48 48 48 46 46 44
25 24 24 25 25 25 26 25 25 25 27 28 29 32 33 35 38 41 41 39 46 44 46 47 49 47 31 37 43 47 50 50 51 51 50 51 53 50 55 52 54 56 52 51 52
25 25 26 26 26 27 28 27 28 31 31 30 32 36 38 40 42 44 43 41 41 44 44 48 55 57 46 31 39 44 51 50 55 52 50 48 48 45 42 44 49 49 49 46 42
26 26 27 28 28 28 29 30 30 31 34 35 38 40 43 46 48 47 47 45 45 42 47 51 56 59 59 41 36 46 47 54 56 56 55 51 47 41 41 44 44 44 39 41 32
29 30 30 28 30 30 30 32 34 34 36 37 40 43 46 49 50 53 54 48 47 47 50 57 59 59 61 57 43 43 48 56 54 58 56 52 44 41 42 41 38 40 37 31 27
30 29 32 31 30 32 33 34 36 38 39 41 43 46 49 51 47 48 51 51 53 58 61 65 67 66 65 63 57 44 49 57 62 57 54 48 45 40 40 44 28 27 36 32 20
33 31 32 33 33 33 34 35 37 40 41 42 45 48 48 48 50 49 49 54 58 60 63 66 67 65 68 59 59 55 52 59 57 57 50 45 38 41 35 39 35 29 26 24 24
36 36 35 33 35 36 37 37 40 41 41 44 47 50 43 43 45 47 54 55 60 53 47 47 42 41 48 52 60 66 56 57 54 57 47 42 34 40 37 35 24 22 25 19 18
Wind_Direction
299 249 247 243 229 244 216 213 202 196 199 195 196 191 191 179 171 151 144 167 182 172 180 191 200 199 203 191 191 171 154 181 213 192 139 108 95 100 94 81 84 81 71 57 55
357 277 247 252 246 241 243 220 211 197 196 198 196 194 194 191 183 169 156 151 168 181 186 188 192 208 215 213 177 192 192 205 207 183 168 111 115 124 109 95 98 109 88 71 59
318 343 282 248 250 242 227 233 216 206 198 199 198 195 194 198 192 186 176 171 158 180 189 187 185 196 211 222 198 181 179 207 226 196 181 125 124 128 122 133 120 120 97 70 46
289 286 340 316 242 228 206 203 214 213 208 199 200 196 196 200 203 196 190 185 187 177 185 195 196 199 214 226 221 211 218 230 246 62 213 161 139 123 128 147 116 123 92 70 39
274 276 274 238 227 211 217 219 183 218 212 203 199 201 198 198 205 205 202 198 196 199 196 195 206 211 216 225 230 227 236 255 265 274 284 291 173 142 160 155 86 23 358 349 348
306 265 263 243 237 193 189 209 214 214 221 208 201 202 201 204 201 207 209 207 209 208 210 208 209 218 223 229 234 247 244 256 265 267 278 254 231 194 227 293 349 350 350 3 337
4 5 260 252 239 224 200 198 209 213 228 213 203 203 202 205 206 208 206 211 217 220 222 221 217 216 227 237 250 248 258 255 258 265 267 257 247 209 224 260 279 295 44 19 348
352 358 15 33 234 230 221 213 189 208 212 202 205 206 208 204 211 211 214 212 216 226 224 229 226 221 222 231 236 245 258 262 265 266 267 258 253 244 234 244 285 248 58 55 356
34 337 353 25 37 260 234 217 214 177 191 198 202 205 209 207 215 211 217 221 217 223 228 233 234 232 231 228 232 237 244 256 251 255 259 257 254 242 243 251 263 252 91 30 349
67 81 38 25 13 37 49 247 228 198 130 177 197 208 211 205 213 217 226 226 233 235 236 234 236 237 240 243 244 239 242 243 243 238 238 239 236 240 246 258 267 242 237 328 306
82 82 98 122 91 82 76 102 102 202 150 155 196 202 205 211 205 214 234 246 244 238 237 238 238 240 238 238 237 236 233 234 234 241 240 232 232 243 247 252 246 250 251 229 290
72 71 64 86 111 93 106 110 87 99 149 175 161 202 201 210 221 228 248 242 243 243 242 244 240 237 237 240 242 244 242 238 230 237 243 234 239 235 239 242 242 256 241 265 279
46 43 54 61 85 101 101 101 107 104 129 139 145 171 198 212 232 241 240 237 237 241 242 244 242 245 245 243 239 240 242 239 239 239 240 241 248 245 245 248 257 250 264 273 289
42 43 42 47 54 52 54 31 33 19 126 197 259 174 187 214 228 238 248 251 246 239 237 238 236 242 246 245 249 243 237 225 224 234 236 237 243 237 240 246 258 255 265 276 277
24 20 20 22 21 19 13 353 342 330 313 316 297 212 190 224 245 249 248 255 253 251 250 247 236 238 241 240 243 238 234 227 217 228 237 237 245 235 241 254 263 260 269 280 284
339 342 356 357 356 355 349 341 331 314 329 333 295 271 277 269 271 270 257 249 247 248 250 249 247 247 249 245 244 242 235 235 225 222 237 228 240 245 244 250 256 265 270 277 280
320 320 328 330 332 331 332 325 320 319 318 313 308 297 297 290 293 285 277 263 249 252 250 248 242 243 242 243 246 247 242 238 235 230 245 233 234 243 240 247 253 249 254 261 270
295 298 304 311 314 315 315 310 309 313 312 305 300 294 293 291 290 286 281 272 269 261 258 258 249 240 246 246 239 244 242 241 235 228 235 232 234 237 232 248 252 249 251 255 259
287 293 298 305 308 305 303 304 306 306 307 305 305 308 304 301 296 291 288 283 279 276 272 269 260 245 245 243 239 237 239 235 236 232 227 233 232 237 231 234 245 250 254 257 260
286 287 293 299 299 304 310 305 301 301 301 298 296 302 299 299 300 300 295 291 291 285 281 277 275 253 247 247 246 237 231 230 234 232 229 226 235 239 239 238 244 248 252 259 266
285 287 290 293 297 302 302 299 299 299 298 295 292 294 296 292 288 288 290 287 287 286 285 281 277 271 248 242 244 247 241 230 230 234 235 233 231 235 239 241 246 250 254 261 266
288 290 292 293 295 296 296 296 296 296 297 293 293 292 290 287 288 287 286 279 277 277 271 274 277 275 270 242 239 239 242 233 228 231 237 237 233 232 234 242 247 249 251 254 257
286 289 290 292 293 294 294 293 293 297 296 295 294 293 292 292 290 288 286 282 277 273 270 269 267 273 273 260 235 237 235 235 225 229 233 236 236 233 229 238 243 251 250 251 236
289 290 289 290 292 294 294 294 293 292 293 293 292 292 291 293 293 291 287 286 283 279 275 268 265 263 266 267 246 236 234 227 223 226 231 235 237 234 227 238 245 244 252 279 298
286 287 288 290 290 292 292 292 292 292 291 292 294 294 295 296 294 290 291 288 284 281 276 270 265 261 258 257 255 240 234 223 223 220 228 233 229 229 229 241 249 253 255 262 272
285 287 288 287 286 289 291 290 290 292 293 296 294 297 301 302 298 301 291 288 287 285 282 277 274 268 261 251 246 239 224 217 221 220 223 228 235 224 231 237 241 245 247 264 272
284 282 282 282 284 286 293 294 294 294 297 296 297 300 305 303 301 298 296 294 295 293 284 277 273 263 260 242 231 228 213 212 218 222 220 223 224 221 224 233 246 266 256 267 259
Height
5863 5862 5862 5863 5864 5864 5865 5867 5874 5878 5882 5886 5890 5893 5896 5898 5899 5899 5900 5902 5903 5906 5907 5910 5913 5915 5916 5920 5921 5921 5923 5923 5922 5921 5921 5922 5923 5923 5922 5924 5925 5925 5924 5922 5923
5863 5862 5861 5860 5861 5862 5864 5865 5870 5875 5879 5884 5889 5892 5895 5897 5899 5900 5901 5902 5903 5905 5908 5910 5913 5915 5916 5919 5922 5923 5923 5923 5922 5920 5922 5923 5924 5925 5924 5925 5927 5927 5925 5923 5922
5862 5861 5860 5859 5860 5860 5862 5862 5866 5872 5877 5882 5887 5889 5893 5896 5899 5900 5902 5903 5904 5905 5907 5910 5912 5914 5915 5918 5923 5922 5924 5923 5923 5922 5921 5921 5925 5925 5925 5926 5927 5927 5926 5926 5923
5861 5860 5859 5859 5859 5859 5860 5859 5862 5868 5874 5879 5884 5887 5891 5895 5898 5899 5901 5903 5904 5905 5907 5909 5912 5914 5914 5915 5919 5923 5922 5923 5926 5925 5923 5923 5923 5925 5925 5926 5927 5927 5927 5927 5924
5860 5859 5859 5858 5858 5857 5858 5860 5862 5866 5872 5876 5881 5885 5888 5892 5896 5899 5901 5902 5904 5905 5907 5908 5910 5912 5913 5914 5916 5919 5921 5923 5925 5926 5924 5922 5923 5923 5924 5926 5927 5927 5928 5928 5927
5859 5858 5857 5858 5857 5857 5858 5859 5862 5864 5866 5872 5877 5882 5886 5890 5893 5897 5899 5901 5903 5904 5905 5907 5909 5912 5913 5913 5915 5916 5920 5921 5923 5925 5924 5924 5922 5923 5924 5926 5927 5927 5927 5928 5926
5858 5857 5856 5856 5856 5856 5858 5858 5859 5861 5861 5866 5873 5878 5882 5888 5892 5895 5897 5899 5901 5904 5905 5907 5909 5911 5912 5914 5915 5916 5918 5920 5922 5924 5922 5921 5922 5922 5924 5927 5927 5926 5926 5925 5925
5859 5857 5856 5856 5856 5857 5858 5858 5858 5858 5858 5860 5869 5875 5879 5885 5886 5890 5894 5896 5898 5900 5902 5904 5907 5909 5910 5912 5913 5914 5915 5915 5917 5919 5919 5920 5920 5922 5923 5925 5924 5924 5924 5924 5924
5860 5859 5857 5856 5855 5855 5856 5857 5857 5858 5857 5858 5865 5870 5875 5880 5882 5889 5891 5893 5895 5896 5899 5901 5904 5906 5908 5909 5910 5911 5913 5913 5913 5914 5916 5916 5916 5919 5920 5922 5923 5923 5922 5923 5925
5860 5860 5858 5856 5856 5856 5856 5856 5857 5858 5858 5858 5860 5867 5874 5881 5882 5886 5888 5891 5892 5894 5896 5898 5900 5903 5906 5907 5908 5908 5909 5910 5911 5911 5909 5912 5912 5913 5916 5919 5919 5920 5921 5922 5923
5861 5860 5860 5858 5858 5857 5856 5855 5858 5859 5858 5858 5859 5863 5871 5877 5881 5885 5886 5887 5889 5891 5891 5892 5897 5901 5898 5899 5901 5901 5903 5905 5909 5908 5907 5909 5910 5910 5912 5913 5915 5917 5917 5919 5921
5862 5861 5861 5860 5860 5860 5860 5859 5859 5859 5859 5860 5860 5864 5870 5874 5878 5882 5882 5883 5883 5885 5884 5888 5893 5891 5890 5893 5896 5897 5900 5903 5905 5904 5902 5903 5904 5905 5906 5909 5911 5912 5913 5915 5918
5863 5862 5862 5861 5861 5862 5862 5861 5861 5861 5861 5861 5862 5865 5870 5874 5875 5875 5876 5877 5878 5879 5879 5880 5887 5884 5886 5887 5889 5892 5895 5899 5901 5897 5898 5898 5898 5901 5902 5904 5905 5908 5910 5911 5912
5864 5864 5863 5862 5863 5861 5861 5860 5860 5861 5862 5864 5863 5866 5868 5869 5869 5870 5870 5871 5872 5873 5871 5872 5878 5879 5880 5881 5883 5886 5890 5891 5891 5889 5891 5892 5889 5892 5894 5900 5900 5902 5904 5907 5908
5864 5864 5863 5862 5861 5860 5861 5859 5859 5859 5861 5862 5862 5864 5866 5868 5869 5868 5866 5865 5866 5865 5866 5869 5871 5871 5871 5875 5873 5880 5878 5881 5882 5882 5884 5886 5885 5890 5889 5892 5897 5895 5899 5901 5903
5864 5863 5862 5861 5860 5859 5858 5858 5858 5858 5857 5859 5859 5859 5860 5860 5860 5860 5861 5861 5860 5860 5858 5861 5865 5864 5867 5868 5866 5870 5870 5872 5874 5875 5873 5882 5878 5881 5884 5888 5890 5890 5894 5896 5898
5862 5861 5860 5859 5857 5856 5855 5855 5856 5853 5855 5855 5854 5853 5854 5853 5853 5852 5852 5854 5854 5853 5853 5853 5856 5856 5857 5859 5860 5861 5865 5865 5868 5868 5868 5878 5873 5873 5876 5882 5883 5884 5888 5889 5891
5859 5858 5857 5856 5854 5853 5851 5851 5850 5848 5848 5847 5847 5848 5849 5846 5845 5844 5844 5844 5844 5844 5844 5845 5849 5849 5849 5848 5855 5853 5854 5856 5856 5860 5867 5871 5866 5867 5872 5873 5877 5876 5878 5881 5883
5854 5854 5853 5852 5851 5850 5849 5847 5845 5844 5843 5840 5838 5836 5834 5835 5836 5837 5836 5833 5831 5833 5834 5834 5836 5841 5838 5840 5843 5845 5845 5847 5847 5852 5853 5858 5859 5861 5866 5868 5868 5868 5871 5874 5876
5849 5849 5848 5847 5845 5844 5843 5841 5841 5839 5838 5836 5834 5833 5831 5827 5824 5823 5823 5820 5818 5819 5819 5819 5820 5829 5832 5832 5834 5831 5836 5838 5839 5840 5842 5846 5851 5854 5861 5865 5865 5866 5869 5870 5873
5843 5842 5842 5840 5840 5838 5836 5835 5833 5832 5831 5830 5828 5826 5825 5823 5820 5818 5816 5813 5807 5806 5804 5803 5804 5809 5819 5822 5823 5825 5826 5826 5830 5830 5833 5838 5842 5847 5854 5858 5859 5860 5863 5865 5866
5836 5836 5835 5834 5834 5831 5829 5828 5827 5824 5823 5821 5820 5817 5815 5813 5811 5809 5807 5803 5801 5797 5796 5791 5787 5789 5798 5810 5811 5811 5814 5817 5817 5823 5825 5829 5834 5840 5843 5849 5851 5853 5854 5856 5857
5830 5828 5828 5827 5826 5825 5823 5821 5819 5817 5814 5812 5808 5806 5803 5802 5800 5797 5794 5789 5785 5787 5783 5780 5775 5774 5777 5794 5799 5795 5804 5806 5809 5812 5814 5821 5827 5833 5835 5836 5842 5846 5848 5848 5845
5823 5821 5820 5820 5818 5817 5815 5812 5810 5809 5805 5802 5799 5796 5793 5790 5786 5782 5777 5777 5773 5770 5766 5758 5759 5760 5761 5770 5782 5785 5789 5792 5798 5801 5806 5811 5820 5825 5830 5832 5835 5838 5841 5840 5839
5815 5815 5812 5811 5811 5809 5807 5804 5801 5798 5795 5791 5788 5783 5780 5777 5774 5768 5765 5759 5754 5747 5743 5733 5732 5738 5745 5751 5758 5771 5773 5781 5784 5790 5796 5808 5811 5818 5823 5828 5831 5832 5834 5838 5840
5807 5806 5804 5803 5801 5799 5798 5796 5793 5789 5786 5782 5777 5773 5768 5763 5759 5757 5750 5743 5737 5729 5720 5711 5705 5711 5710 5731 5737 5746 5758 5768 5775 5783 5788 5798 5804 5811 5818 5820 5823 5826 5830 5834 5836
5797 5796 5795 5794 5792 5790 5788 5786 5782 5779 5776 5771 5767 5763 5758 5752 5746 5742 5732 5728 5714 5706 5700 5689 5687 5687 5685 5703 5710 5716 5739 5754 5768 5776 5783 5788 5797 5803 5809 5815 5819 5823 5827 5830 5831